Погода в Ое

Россия / Республика Саха (Якутия)     61°32′12″N   129°10′57″E
темп.,
°C
ветер,
м/с
пор.,
м/с
влажн.,
%
обл.,
%
осадки,
мм/ч
давл.,
гПа
погр.,
м
6 марта, сб
сб600:00−33зюз239658 0.0 103127
03:00−34зюз239629 0.0 103129
06:00−35зюз23960 0.0 103136
09:00−32зюз23950 0.0 1029117
12:00−25зюз248827 0.0 1027412
15:00−21зюз138262 0.0 1024567
18:00−26ю119477 0.0 102420
21:00−29ююз009739 0.0 102319
7 марта, вс
вс700:00−31в11981 0.0 102319
03:00−32всв11991 0.0 102219
06:00−33св129949 0.0 102119
09:00−30св129645 0.0 102172
12:00−23ссв129067 0.0 1018232
15:00−20ссв229081 0.0 1016198
18:00−21св239676 0.0 101527
21:00−19всв229888 0.1 101357
8 марта, пн
пн800:00−18св2298100 0.2 101154
03:00−19св2498100 0.4 100899
06:00−18св3598100 0.3 1006148
09:00−18св3597100 0.5 1005195
12:00−16св4696100 0.2 1003261
15:00−15ссв4695100 0.4 1002270
18:00−17ссв3796100 0.2 1003220
21:00−18ссв3597100 0.4 1004167
9 марта, вт
вт900:00−20с2398100 0.1 100599
03:00−21с229898 0.2 100745
06:00−21сз119897 0.1 101024
09:00−20сз129696 0.1 1012135
12:00−16з2489100 0.1 1014458
15:00−13з3587100 0.1 1014605
18:00−15зюз2294100 0.1 101520
21:00−18ююз129775 0.1 101520
10 марта, ср
ср1000:00−17ююз129889 0.1 101422
03:00−18ю229679 0.1 101220
06:00−18юв239365 0.0 101057
09:00−12ююв388783 0.0 1008410
12:00−10ю4886100 0.0 1006726
15:00−7ююз4788100 0.4 1005712
18:00−7ююз2496100 0.6 1006181
21:00−10зюз31087100 0.9 1008364